THOR ABLESTAR DEB, 5826

Orbit data source: Space-Track

THOR ABLESTAR DEB, 5826 is space debris in LEO originally from a launch on Thu, 29 Jun 1961 UTC launched from the Air Force Eastern Test Range (AFETR). Debris objects in space refer to the collection of defunct objects orbiting the Earth. Examples of debris include non-operational satellites, rocket bodies, and fragments generated from explosions, collisions, or faulty payload assembly.

Loading next visibility...
Identifier
5826, 1961-015KE
Orbit
LEO
Country
Flag of USUS
Related business
Manufacturer
Unknown
Mission
Spacecraft
Bus & Motor
Unknown
Mass
Unknown
Launch date (UTC)
1961-06-29 (64 years ago)
Launch vehicle
Unknown
Launch site
Air Force Eastern Test Range (AFETR)
Object type
Payload
Rocket body
Debris
Shape & HBR
Unknown shape, 0.1 m
Radar Cross Section
Small (<0.1 m²)

Expand to show TLE details & history
Last TLE update: 1 day ago

TLE from 1 day ago
0 THOR ABLESTAR DEB
1 05826U 61015KE  25348.59263594  .00000581  00000-0  45977-3 0  9998
2 05826  66.6807  51.1267 0071241  21.3771 339.0260 13.97326055244930
Epoch: 2025-12-14T14:13Z
TLE epoch observation values (Epoch: 2025-12-14T14:13:23.745Z)
Latitude
0.00005°
Longitude
114.27445°
Altitude
856.75 km
Speed
7.449 km/s
True Right ascension
03h 24m 30s
True Declination
0° 00' 00"
Sunlit
Object was in full shadow at epoch
Visualization orbit readout
Latitude
Unknown
Longitude
Unknown
Altitude
Unknown
Speed
Unknown
Apparent Right ascension
Unknown
Apparent Declination
Unknown
Sunlit
N/A
Visualization observer readout
Local Sidereal Time
15:40:40
Azimuth
Unknown
Elevation
Unknown
Doppler factor
Unknown
Orbital elements
Apogee altitude
953.332 km
Perigee altitude
849.611 km
Semi-major axis
7,279.608 km
Eccentricity
0.00712
Inclination
66.6807°
RAAN
51.1267°
Arg. of periapsis
21.3771°
True anomaly
338.73134°
Mean anomaly
339.026°
Eccentric anomaly
338.87892°
Mean motion
3.49447 °/min
Orbital period
103.02 mins
BSTAR
0.00045977
Loading maneuver chart data...
Computing Atmospheric mass density...

Documentation

Showing up to 5 results
|